Location: Plymouth Village
(34.0436°N, 117.1717°W)
Time: 05:07:55
(UTC+00:00)

Atlas Centaur 2 - Pass Details

Date: 10 September 2024
Orbit: 457 x 1270 km, 30.4° (Epoch: 09 October)

Event Time Altitude Azimuth Distance (km) Brightness Sun altitude
Exits shadow 12:57:58 - 249° (WSW) 2,583 4.1 -7.2°
Reaches altitude 10° 12:58:24 10° 248° (WSW) 2,436 4.0 -7.1°
Maximum altitude 13:04:13 59° 170° (S) 1,116 2.9 -5.9°
Drops below altitude 10° 13:11:28 10° 93° (E) 3,008 6.8 -4.4°
Sets 13:14:34 0° 90° (E) 4,065 8.3 -3.8°
